Location: McCloud Nature Park
(39.8272°N, 86.6824°W)
Time: 11:53:09
(UTC-06:00)

Amateur Radio Satellites - All Passes

Search period start: 06 December 2016 11:23
Search period end: 07 December 2016 11:23
Location: McCloud Nature Park, 39.8272°N, 86.6824°W

Satellite Date Start Highest point End Downlink Frequencies (MHz)
Time Altitude Azimuth
VELOX 1 06 Dec 11:23:21 11:27:30 36° 98° (E) 11:31:36 145.980
QB50P2 06 Dec 11:26:44 11:30:17 25° 264° (W) 11:33:51 145.880/145.840
POLYITAN 1 06 Dec 11:27:10 11:30:47 26° 264° (W) 11:34:26 437.675
RS-15 06 Dec 11:31:28 11:40:06 21° 354° (N) 11:48:50 29.354- 29.394
DX 1 06 Dec 11:36:02 11:39:44 26° 96° (E) 11:43:24 434.975-435.025
QB50P1 06 Dec 11:40:45 11:43:51 19° 266° (W) 11:46:57 145.935-145.965
UKube-1 06 Dec 11:42:47 11:46:13 23° 95° (E) 11:49:38 .
DUCHIFAT 1 06 Dec 11:43:01 11:46:15 21° 266° (W) 11:49:31 145.980
GONETS M04 06 Dec 11:45:25 11:54:10 90° 83° (E) 12:02:56
SPROUT 06 Dec 11:54:15 11:58:28 53° 100° (E) 12:02:38 437.525
AO-7 06 Dec 12:00:03 12:02:03 11° 43° (NE) 12:04:02 29.400- 29.500
POPSAT HIP 1 06 Dec 12:04:15 12:05:37 11° 270° (W) 12:06:59 437.405
50 SAT 06 Dec 12:05:17 12:08:50 76° 284° (WNW) 12:12:23 437.505
ESTCUBE 1 06 Dec 12:18:08 12:21:43 24° 292° (WNW) 12:25:19 437.505/2401.250
Gurwin Techsat 1B 06 Dec 12:19:34 12:24:29 40° 70° (ENE) 12:29:25 435.225
Oscar 19 06 Dec 12:20:36 12:25:43 80° 74° (ENE) 12:30:52 437.125/150
AISAT 06 Dec 12:22:43 12:27:01 46° 288° (WNW) 12:31:16 437.250
PCSat 06 Dec 12:25:49 12:30:14 25° 311° (NW) 12:34:39 145.827
BUGSAT 1 06 Dec 12:40:00 12:42:00 13° 269° (W) 12:44:02 437.445
CUBEBUG 1 06 Dec 12:48:56 12:51:58 18° 294° (WNW) 12:54:58 437.445
ITAMSAT 1 06 Dec 12:51:36 12:55:10 19° 63° (ENE) 12:58:43 435.822/435.867
BEESAT 3 06 Dec 12:57:38 13:01:21 35° 52° (NE) 13:05:00 437.485
VELOX 1 06 Dec 13:00:23 13:03:41 21° 294° (WNW) 13:07:00 145.980
Cosmos 2499 06 Dec 13:05:07 13:11:44 26° 279° (W) 13:18:01 435.465 / 435.565
DX 1 06 Dec 13:12:08 13:15:50 27° 292° (WNW) 13:19:32 434.975-435.025
TISAT 1 06 Dec 13:14:52 13:19:06 68° 102° (ESE) 13:23:15 437.305
UKube-1 06 Dec 13:18:27 13:22:14 30° 291° (WNW) 13:26:01 .
SWISSCUBE 06 Dec 13:19:40 13:22:35 16° 92° (E) 13:25:30 437.505
BEESAT 06 Dec 13:23:43 13:26:35 16° 92° (E) 13:29:27 436.000
BEESAT 2 06 Dec 13:27:33 13:31:15 34° 52° (NE) 13:34:56 435.950
SPROUT 06 Dec 13:31:47 13:33:54 14° 296° (WNW) 13:36:01 437.525
GONETS M04 06 Dec 13:44:40 13:49:41 17° 283° (WNW) 13:54:44
AO-7 06 Dec 13:44:57 13:52:51 51° 64° (ENE) 14:00:48 29.400- 29.500
RS-15 06 Dec 13:48:01 13:58:28 30° 29° (NNE) 14:08:43 29.354- 29.394
ITUPSAT 1 06 Dec 13:50:36 13:54:46 29° 97° (E) 13:58:54 437.325
Gurwin Techsat 1B 06 Dec 14:00:13 14:04:31 25° 265° (W) 14:08:51 435.225
Oscar 19 06 Dec 14:04:10 14:05:36 11° 271° (W) 14:07:04 437.125/150
AUBIESAT-1 06 Dec 14:14:12 14:18:33 42° 103° (ESE) 14:22:42 437.475
MOZHAYETS 4 06 Dec 14:25:59 14:28:56 17° 92° (E) 14:31:52
M-CUBED/EXP-1 PRIME 06 Dec 14:26:36 14:31:18 72° 107° (ESE) 14:35:46 437.505
ITAMSAT 1 06 Dec 14:29:04 14:34:11 55° 260° (W) 14:39:18 435.822/435.867
BEESAT 3 06 Dec 14:35:51 14:38:43 19° 249° (WSW) 14:41:34 437.485
TISAT 1 06 Dec 14:53:10 14:54:07 11° 298° (WNW) 14:55:05 437.305
KKS-1 06 Dec 14:53:48 14:55:53 13° 91° (E) 14:57:56 437.445
SWISSCUBE 06 Dec 14:56:03 15:00:38 50° 288° (WNW) 15:05:13 437.505
BEESAT 06 Dec 15:00:02 15:04:38 51° 288° (WNW) 15:09:13 436.000
HORYU 2 06 Dec 15:05:47 15:08:04 14° 63° (ENE) 15:10:21 437.375
BEESAT 2 06 Dec 15:05:49 15:08:49 20° 249° (WSW) 15:11:49 435.950
O/OREOS (USA 219) 06 Dec 15:14:21 15:18:45 50° 107° (ESE) 15:23:09 437.305
ITUPSAT 1 06 Dec 15:28:28 15:32:30 28° 292° (WNW) 15:36:30 437.325
AO-7 06 Dec 15:38:23 15:45:47 36° 262° (W) 15:53:15 29.400- 29.500
ISS 06 Dec 15:42:40 15:45:56 76° 141° (SE) 15:49:14 145.825
AUBIESAT-1 06 Dec 15:49:14 15:52:36 21° 300° (WNW) 15:55:53 437.475
Cosmos 2491 06 Dec 15:51:23 15:56:03 15° 60° (ENE) 16:00:41 435.465 / 435.565
GOMX 1 06 Dec 15:55:18 15:58:54 23° 66° (ENE) 16:02:43 467.674
AIST 2 06 Dec 15:58:40 16:02:35 35° 52° (NE) 16:06:29 435.215
RS-15 06 Dec 16:00:52 16:13:20 79° 57° (ENE) 16:25:20 29.354- 29.394
MOZHAYETS 4 06 Dec 16:01:58 16:06:17 44° 288° (WNW) 16:10:36
M-CUBED/EXP-1 PRIME 06 Dec 16:02:48 16:05:06 14° 303° (WNW) 16:07:22 437.505
DOVE 4 06 Dec 16:04:50 16:07:06 13° 61° (ENE) 16:09:25 437.250
CUBESAT XI-V 06 Dec 16:06:03 16:10:05 28° 96° (E) 16:14:07 437.345
CUTE-I 06 Dec 16:07:52 16:11:48 21° 64° (ENE) 16:15:44 437.470
BRITE-PL 06 Dec 16:21:18 16:25:34 80° 257° (WSW) 16:30:10 437.365/2234.400
NOAA 18 06 Dec 16:21:33 16:25:22 19° 62° (ENE) 16:29:13 137.9125
NOAA 15 06 Dec 16:28:04 16:32:45 34° 68° (ENE) 16:37:27 137.62
KKS-1 06 Dec 16:28:22 16:32:46 56° 287° (WNW) 16:37:07 437.445
STARS 06 Dec 16:32:48 16:37:15 75° 104° (ESE) 16:41:38 437.465
Cubesat XI-IV 06 Dec 16:32:55 16:37:44 34° 68° (ENE) 16:42:33 437.490
HORYU 2 06 Dec 16:39:41 16:44:07 58° 259° (W) 16:48:32 437.375
O/OREOS (USA 219) 06 Dec 16:55:26 16:58:26 17° 304° (NW) 17:01:25 437.305
LilacSat-2 06 Dec 17:13:35 17:17:26 89° 75° (ENE) 17:21:18 437.200
CINEMA 3 06 Dec 17:18:00 17:21:25 19° 65° (ENE) 17:24:53 145.822/145.860
ISS 06 Dec 17:20:17 17:22:46 19° 339° (NNW) 17:25:14 145.825
HO-68 06 Dec 17:26:04 17:31:52 28° 60° (ENE) 17:37:40 435.675
GOMX 1 06 Dec 17:32:35 17:36:44 35° 264° (W) 17:41:13 467.674
CANX-2 06 Dec 17:34:53 17:37:25 16° 66° (ENE) 17:39:57 2200.000
AIST 2 06 Dec 17:37:36 17:40:50 22° 249° (WSW) 17:44:04 435.215
DOVE 4 06 Dec 17:39:16 17:44:01 74° 258° (WSW) 17:49:07 437.250
CUBESAT XI-V 06 Dec 17:43:25 17:47:23 28° 291° (WNW) 17:51:20 437.345
Cosmos 2491 06 Dec 17:45:41 17:54:26 78° 82° (E) 18:03:09 435.465 / 435.565
CUTE-I 06 Dec 17:46:14 17:51:26 51° 260° (W) 17:56:40 437.470
SEEDS 06 Dec 17:58:55 18:01:34 17° 66° (ENE) 18:04:14 437.485
NOAA 18 06 Dec 18:00:04 18:05:31 60° 258° (WSW) 18:11:01 137.9125
NOAA 15 06 Dec 18:08:04 18:12:31 28° 264° (W) 18:17:01 137.62
COMPASS 1 06 Dec 18:08:42 18:10:54 14° 65° (ENE) 18:13:05 437.405
YUBILEINY 06 Dec 18:11:32 18:19:48 51° 89° (E) 18:28:07 435.215
STARS 06 Dec 18:11:56 18:12:57 11° 299° (WNW) 18:13:57 437.465
Cubesat XI-IV 06 Dec 18:13:07 18:17:46 30° 264° (W) 18:22:27 437.490
RS-15 06 Dec 18:14:48 18:24:31 29° 258° (WSW) 18:34:00 29.354- 29.394
UWE-3 06 Dec 18:15:30 18:16:58 11° 62° (ENE) 18:18:26 435.000/436.395/437.385
STRAND 1 06 Dec 18:19:49 18:23:58 25° 95° (E) 18:28:04 437.568
AIST 1 06 Dec 18:19:53 18:22:18 15° 85° (E) 18:24:45
CUTE 1.7 + AOD 2 06 Dec 18:50:28 18:54:41 84° 259° (W) 18:58:55 437.475
SO-50 06 Dec 18:51:57 18:56:08 31° 114° (ESE) 19:00:16 436.795
CINEMA 3 06 Dec 18:53:20 18:58:06 50° 261° (W) 19:03:00 145.822/145.860
ZACube-1 06 Dec 18:53:30 18:56:28 17° 66° (ENE) 18:59:25 437.345
Cosmos 2504 06 Dec 18:55:17 19:03:07 47° 88° (E) 19:11:24 435.465 / 435.565
ISS 06 Dec 18:59:23 19:00:17 11° 359° (N) 19:01:11 145.825
FUNcube-1 06 Dec 19:00:37 19:03:46 19° 67° (ENE) 19:06:54 145.935
CUSAT 1 06 Dec 19:06:35 19:09:31 21° 77° (ENE) 19:13:04 437.405
CUBEBUG 2 06 Dec 19:07:00 19:11:41 61° 74° (ENE) 19:16:21 437.445
CANX-2 06 Dec 19:08:54 19:12:54 43° 261° (W) 19:16:56 2200.000
AAUSAT CUBESAT 2 06 Dec 19:11:03 19:15:04 55° 74° (ENE) 19:19:05 437.432
HO-68 06 Dec 19:12:05 19:19:06 59° 258° (WSW) 19:26:12 435.675
Oscar 11 06 Dec 19:29:31 19:33:25 34° 71° (ENE) 19:37:20 145.826/435.025
PCSat 06 Dec 19:29:58 19:34:57 35° 53° (NE) 19:39:54 145.827
SEEDS 06 Dec 19:33:02 19:36:57 39° 262° (W) 19:40:52 437.485
COMPASS 1 06 Dec 19:42:04 19:46:02 46° 261° (W) 19:50:01 437.405
Cosmos 2491 06 Dec 19:44:20 19:50:13 21° 281° (W) 19:56:05 435.465 / 435.565
UWE-3 06 Dec 19:48:07 19:52:48 77° 259° (W) 19:57:25 435.000/436.395/437.385
AIST 1 06 Dec 19:55:23 19:59:28 42° 282° (WNW) 20:03:37
STRAND 1 06 Dec 19:58:32 20:03:12 37° 291° (WNW) 20:07:51 437.568
DANDE 06 Dec 20:00:15 20:01:43 13° 76° (ENE) 20:03:17 436.750
DELFI C3 06 Dec 20:04:21 20:07:41 28° 71° (ENE) 20:11:03 145.870
YUBILEINY 06 Dec 20:09:07 20:16:49 34° 289° (WNW) 20:24:38 435.215
HUMSAT D 06 Dec 20:15:03 20:18:13 21° 68° (ENE) 20:21:21 437.325/437.525
PRISM 06 Dec 20:16:39 20:20:02 24° 96° (E) 20:23:24 437.425
ZACube-1 06 Dec 20:28:01 20:32:23 45° 261° (W) 20:36:44 437.345
SO-50 06 Dec 20:32:16 20:36:32 32° 310° (NW) 20:40:46 436.795
FUNcube-1 06 Dec 20:35:25 20:39:41 41° 262° (W) 20:43:56 145.935
ISS 06 Dec 20:35:34 20:37:51 17° 19° (NNE) 20:40:08 145.825
CUBEBUG 2 06 Dec 20:46:18 20:48:38 13° 270° (W) 20:50:58 437.445
CUSAT 1 06 Dec 20:47:59 20:51:19 27° 264° (W) 20:55:27 437.405
Cosmos 2504 06 Dec 20:49:00 20:56:38 38° 288° (WNW) 21:04:41 435.465 / 435.565
AAUSAT CUBESAT 2 06 Dec 20:49:46 20:50:51 11° 270° (W) 20:51:57 437.432
UNISAT 6 06 Dec 21:02:46 21:05:41 17° 93° (E) 21:08:33 437.425
Oscar 11 06 Dec 21:06:31 21:09:38 19° 267° (W) 21:12:45 145.826/435.025
PCSat 06 Dec 21:13:29 21:18:16 32° 251° (WSW) 21:23:01 145.827
TIGRISAT 06 Dec 21:31:42 21:35:41 33° 97° (E) 21:39:34 435.000
ANTELSAT 06 Dec 21:33:17 21:37:22 37° 98° (E) 21:41:21 437.575/2403.000
DELFI C3 06 Dec 21:39:37 21:42:30 20° 266° (W) 21:45:24 145.870
ESTCUBE 1 06 Dec 21:39:59 21:43:43 27° 69° (ENE) 21:47:29 437.505/2401.250
DANDE 06 Dec 21:42:02 21:44:17 19° 264° (W) 21:46:51 436.750
AISAT 06 Dec 21:44:58 21:47:10 14° 63° (ENE) 21:49:24 437.250
HUMSAT D 06 Dec 21:49:53 21:53:37 31° 263° (W) 21:57:22 437.325/437.525
PRISM 06 Dec 21:51:45 21:55:16 27° 291° (WNW) 21:58:46 437.425
CUBEBUG 1 06 Dec 22:07:00 22:10:50 31° 70° (ENE) 22:14:43 437.445
ISS 06 Dec 22:11:27 22:14:47 82° 37° (NE) 22:18:05 145.825
VELOX 1 06 Dec 22:19:55 22:23:45 30° 69° (ENE) 22:27:36 145.980
DX 1 06 Dec 22:31:08 22:34:25 21° 67° (ENE) 22:37:43 434.975-435.025
UKube-1 06 Dec 22:37:00 22:39:58 18° 66° (ENE) 22:42:56 .
UNISAT 6 06 Dec 22:38:28 22:42:34 39° 289° (WNW) 22:46:33 437.425
50 SAT 06 Dec 22:39:47 22:42:58 34° 72° (ENE) 22:46:11 437.505
SPROUT 06 Dec 22:46:46 22:50:42 36° 71° (ENE) 22:54:41 437.525
GONETS M04 06 Dec 22:52:00 22:57:57 21° 79° (E) 23:03:51
NANOSAT C BR1 06 Dec 23:04:56 23:08:53 38° 98° (E) 23:12:47 145.865
TIGRISAT 06 Dec 23:08:53 23:12:07 21° 294° (WNW) 23:15:20 435.000
ANTELSAT 06 Dec 23:10:43 23:13:47 19° 294° (WNW) 23:16:48 437.575/2403.000
QB50P2 06 Dec 23:11:28 23:15:38 53° 100° (E) 23:19:45 145.880/145.840
POLYITAN 1 06 Dec 23:12:00 23:16:08 50° 100° (E) 23:20:13 437.675
ESTCUBE 1 06 Dec 23:16:39 23:20:26 27° 264° (W) 23:24:15 437.505/2401.250
AISAT 06 Dec 23:18:47 23:23:07 58° 259° (W) 23:27:31 437.250
QB50P1 06 Dec 23:24:41 23:28:56 71° 102° (ESE) 23:33:07 145.935-145.965
DUCHIFAT 1 06 Dec 23:26:31 23:30:43 63° 100° (E) 23:34:51 145.980
JAS-2 06 Dec 23:27:30 23:32:43 84° 285° (WNW) 23:38:13 435.910
CUBEBUG 1 06 Dec 23:43:44 23:47:07 22° 265° (W) 23:50:34 437.445
Cosmos 2499 06 Dec 23:44:52 23:53:02 53° 89° (E) 00:01:34 435.465 / 435.565
POPSAT HIP 1 06 Dec 23:46:20 23:50:33 65° 286° (WNW) 23:54:43 437.405
PHONESAT 2.4 06 Dec 23:49:32 23:52:02 36° 159° (SSE) 23:54:32 2401.200-2431.200
ISS 06 Dec 23:50:38 23:50:48 10° 232° (SW) 23:50:58 145.825
VELOX 1 06 Dec 23:56:37 00:00:10 24° 265° (W) 00:03:46 145.980
TISAT 1 07 Dec 00:05:23 00:09:25 44° 72° (ENE) 00:13:29 437.305
DX 1 07 Dec 00:06:27 00:10:23 33° 262° (W) 00:14:21 434.975-435.025
UKube-1 07 Dec 00:11:40 00:15:42 38° 261° (W) 00:19:46 .
50 SAT 07 Dec 00:14:53 00:16:24 12° 267° (W) 00:17:55 437.505
BUGSAT 1 07 Dec 00:19:54 00:24:06 84° 286° (WNW) 00:28:14 437.445
SPROUT 07 Dec 00:23:44 00:26:44 18° 267° (W) 00:29:45 437.525
SWISSCUBE 07 Dec 00:25:30 00:28:45 18° 64° (ENE) 00:31:59 437.505
BEESAT 07 Dec 00:29:29 00:32:42 18° 64° (ENE) 00:35:54 436.000
Oscar 19 07 Dec 00:33:17 00:37:48 29° 96° (E) 00:42:18 437.125/150
AO-85 07 Dec 00:35:19 00:39:29 27° 113° (ESE) 00:43:24 145.980
Gurwin Techsat 1B 07 Dec 00:37:34 00:40:51 16° 91° (E) 00:44:07 435.225
NANOSAT C BR1 07 Dec 00:41:27 00:44:17 18° 294° (WNW) 00:47:07 145.865
GONETS M04 07 Dec 00:44:59 00:53:42 78° 278° (W) 01:02:27
QB50P2 07 Dec 00:48:54 00:50:57 13° 296° (WNW) 00:52:59 145.880/145.840
POLYITAN 1 07 Dec 00:49:17 00:51:29 14° 296° (WNW) 00:53:40 437.675
ITUPSAT 1 07 Dec 00:56:33 01:00:46 32° 69° (ENE) 01:05:01 437.325
AUBIESAT-1 07 Dec 00:58:40 01:02:36 43° 67° (ENE) 01:06:49 437.475
QB50P1 07 Dec 01:03:29 01:04:04 10° 298° (WNW) 01:04:40 145.935-145.965
DUCHIFAT 1 07 Dec 01:04:29 01:05:50 11° 297° (WNW) 01:07:11 145.980
M-CUBED/EXP-1 PRIME 07 Dec 01:11:32 01:15:37 76° 72° (ENE) 01:20:03 437.505
PHONESAT 2.4 07 Dec 01:24:30 01:27:10 78° 355° (N) 01:29:49 2401.200-2431.200
O/OREOS (USA 219) 07 Dec 01:24:58 01:29:28 85° 69° (ENE) 01:33:55 437.305
MOZHAYETS 4 07 Dec 01:27:37 01:30:23 16° 64° (ENE) 01:33:07
Cosmos 2499 07 Dec 01:38:49 01:46:27 35° 289° (WNW) 01:54:23 435.465 / 435.565
TISAT 1 07 Dec 01:42:52 01:45:15 15° 268° (W) 01:47:40 437.305
AO-7 07 Dec 01:49:36 01:53:58 15° 90° (E) 01:58:20 29.400- 29.500
KKS-1 07 Dec 01:51:55 01:53:39 12° 62° (ENE) 01:55:23 437.445
SWISSCUBE 07 Dec 02:01:33 02:06:09 47° 261° (W) 02:10:46 437.505
BEESAT 07 Dec 02:05:28 02:10:05 48° 260° (W) 02:14:43 436.000
Oscar 19 07 Dec 02:12:28 02:17:04 33° 292° (WNW) 02:21:39 437.125/150
AO-85 07 Dec 02:15:15 02:19:47 37° 308° (NW) 02:24:01 145.980
Gurwin Techsat 1B 07 Dec 02:15:56 02:21:10 60° 288° (WNW) 02:26:23 435.225
AUBIESAT-1 07 Dec 02:34:37 02:37:15 16° 264° (W) 02:40:00 437.475
ITUPSAT 1 07 Dec 02:34:39 02:38:36 25° 264° (W) 02:42:34 437.325
ITAMSAT 1 07 Dec 02:42:32 02:47:38 56° 101° (E) 02:52:42 435.822/435.867
GONETS M04 07 Dec 02:47:31 02:52:05 15° 300° (WNW) 02:56:42
PHONESAT 2.4 07 Dec 02:59:47 03:02:26 81° 191° (SSW) 03:05:04 2401.200-2431.200
MOZHAYETS 4 07 Dec 03:02:38 03:07:06 51° 260° (W) 03:11:35
CUBESAT XI-V 07 Dec 03:08:49 03:12:35 26° 68° (ENE) 03:16:20 437.345
SO-50 07 Dec 03:23:58 03:27:39 24° 47° (NE) 03:31:16 436.795
KKS-1 07 Dec 03:25:11 03:29:37 68° 258° (WSW) 03:34:06 437.445
STARS 07 Dec 03:28:16 03:32:37 59° 74° (ENE) 03:37:00 437.465
AO-7 07 Dec 03:39:25 03:47:51 82° 107° (ESE) 03:56:14 29.400- 29.500
YUBILEINY 07 Dec 04:23:04 04:29:54 24° 66° (ENE) 04:36:40 435.215
ITAMSAT 1 07 Dec 04:23:11 04:26:38 18° 297° (WNW) 04:30:05 435.822/435.867
BEESAT 3 07 Dec 04:23:56 04:27:48 82° 120° (ESE) 04:31:46 437.485
BRITE-PL 07 Dec 04:25:44 04:30:53 39° 97° (E) 04:36:09 437.365/2234.400
HORYU 2 07 Dec 04:31:40 04:35:26 27° 96° (E) 04:39:09 437.375
PHONESAT 2.4 07 Dec 04:35:21 04:37:26 20° 207° (SSW) 04:39:29 2401.200-2431.200
NOAA 15 07 Dec 04:45:26 04:47:51 13° 90° (E) 04:50:15 137.62
CUBESAT XI-V 07 Dec 04:45:48 04:49:49 30° 264° (W) 04:53:52 437.345
Cosmos 2504 07 Dec 04:50:25 04:55:43 17° 61° (ENE) 05:00:49 435.465 / 435.565
Cubesat XI-IV 07 Dec 04:52:19 04:54:59 14° 90° (E) 04:57:37 437.490
Cosmos 2491 07 Dec 04:53:22 04:58:31 17° 77° (ENE) 05:03:39 435.465 / 435.565
BEESAT 2 07 Dec 04:55:25 04:59:20 81° 120° (ESE) 05:03:19 435.950
SO-50 07 Dec 05:04:02 05:08:15 39° 244° (WSW) 05:12:23 436.795
STARS 07 Dec 05:07:37 05:09:20 12° 269° (W) 05:11:02 437.465
AO-7 07 Dec 05:33:31 05:39:41 24° 306° (NW) 05:45:52 29.400- 29.500
GOMX 1 07 Dec 05:33:56 05:39:27 74° 102° (ESE) 05:44:54 467.674
STRAND 1 07 Dec 05:34:48 05:39:22 33° 68° (ENE) 05:43:57 437.568
DOVE 4 07 Dec 05:39:06 05:43:57 35° 96° (E) 05:48:37 437.250
AIST 1 07 Dec 06:02:52 06:07:03 41° 78° (ENE) 06:11:12
CUTE-I 07 Dec 06:03:50 06:09:10 69° 102° (ESE) 06:14:26 437.470
BRITE-PL 07 Dec 06:04:31 06:09:08 29° 292° (WNW) 06:13:54 437.365/2234.400
BEESAT 3 07 Dec 06:04:36 06:05:59 11° 319° (NW) 06:07:22 437.485
HORYU 2 07 Dec 06:08:11 06:11:53 27° 292° (WNW) 06:15:35 437.375
YUBILEINY 07 Dec 06:18:43 06:27:31 73° 266° (W) 06:36:17 435.215
LilacSat-2 07 Dec 06:21:49 06:25:30 51° 286° (WNW) 06:29:09 437.200
RS-15 07 Dec 06:22:13 06:33:26 56° 111° (ESE) 06:45:09 29.354- 29.394
NOAA 18 07 Dec 06:22:49 06:28:19 63° 102° (ESE) 06:33:46 137.9125
NOAA 15 07 Dec 06:22:51 06:28:08 73° 286° (WNW) 06:33:23 137.62
Cubesat XI-IV 07 Dec 06:30:13 06:35:32 70° 287° (WNW) 06:40:49 437.490
BEESAT 2 07 Dec 06:36:08 06:37:40 12° 319° (NW) 06:39:12 435.950
CUTE 1.7 + AOD 2 07 Dec 06:37:02 06:39:51 17° 93° (E) 06:42:40 437.475
HO-68 07 Dec 06:40:59 06:47:06 29° 95° (E) 06:53:10 435.675
Cosmos 2504 07 Dec 06:41:45 06:50:35 83° 82° (E) 06:58:52 435.465 / 435.565
Cosmos 2491 07 Dec 06:45:16 06:54:05 89° 283° (WNW) 07:02:53 435.465 / 435.565
CINEMA 3 07 Dec 06:49:07 06:53:41 43° 98° (E) 06:58:00 145.822/145.860
CANX-2 07 Dec 06:54:32 06:58:19 32° 96° (E) 07:02:06 2200.000
CUBEBUG 2 07 Dec 07:00:52 07:02:43 12° 90° (E) 07:04:32 437.445
PRISM 07 Dec 07:06:05 07:08:35 16° 65° (ENE) 07:11:06 437.425
GOMX 1 07 Dec 07:13:41 07:16:50 16° 298° (WNW) 07:20:00 467.674
STRAND 1 07 Dec 07:14:09 07:18:32 28° 264° (W) 07:22:55 437.568
DOVE 4 07 Dec 07:16:59 07:21:25 28° 293° (WNW) 07:25:46 437.250
SEEDS 07 Dec 07:17:22 07:21:10 33° 97° (E) 07:24:58 437.485
COMPASS 1 07 Dec 07:25:36 07:29:10 27° 96° (E) 07:32:43 437.405
AIST 2 07 Dec 07:33:05 07:37:11 87° 301° (WNW) 07:41:21 435.215
UWE-3 07 Dec 07:39:29 07:42:47 21° 94° (E) 07:46:01 435.000/436.395/437.385
AIST 1 07 Dec 07:41:37 07:44:15 16° 274° (W) 07:46:53
CUTE-I 07 Dec 07:45:30 07:48:36 16° 299° (WNW) 07:51:40 437.470
UNISAT 6 07 Dec 08:01:00 08:03:54 17° 65° (ENE) 08:06:48 437.425
NOAA 18 07 Dec 08:04:45 08:08:26 18° 299° (WNW) 08:12:05 137.9125
CUSAT 1 07 Dec 08:10:39 08:12:28 15° 95° (E) 08:14:08 437.405
CUTE 1.7 + AOD 2 07 Dec 08:11:55 08:15:48 37° 288° (WNW) 08:19:42 437.475
ZACube-1 07 Dec 08:17:16 08:21:07 34° 97° (E) 08:24:53 437.345
YUBILEINY 07 Dec 08:19:25 08:22:38 12° 286° (WNW) 08:25:50 435.215
FUNcube-1 07 Dec 08:24:10 08:28:05 37° 98° (E) 08:31:56 145.935
CINEMA 3 07 Dec 08:27:02 08:30:25 19° 295° (WNW) 08:33:42 145.822/145.860
HO-68 07 Dec 08:28:07 08:35:03 53° 292° (WNW) 08:41:58 435.675
AAUSAT CUBESAT 2 07 Dec 08:29:02 08:33:09 69° 285° (WNW) 08:37:17 437.432
TIGRISAT 07 Dec 08:29:15 08:33:18 29° 69° (ENE) 08:37:18 435.000
CANX-2 07 Dec 08:30:49 08:33:57 21° 292° (WNW) 08:37:06 2200.000
ANTELSAT 07 Dec 08:30:56 08:35:06 32° 70° (ENE) 08:39:12 437.575/2403.000
RS-15 07 Dec 08:34:47 08:46:09 49° 315° (NW) 08:58:02 29.354- 29.394
CUBEBUG 2 07 Dec 08:35:25 08:39:42 53° 287° (WNW) 08:43:49 437.445
Cosmos 2504 07 Dec 08:37:06 08:42:44 19° 282° (WNW) 08:48:12 435.465 / 435.565
PRISM 07 Dec 08:39:43 08:43:32 40° 261° (W) 08:47:24 437.425
Cosmos 2491 07 Dec 08:46:34 08:52:11 18° 297° (WNW) 08:57:48 435.465 / 435.565
Oscar 11 07 Dec 08:52:51 08:57:10 80° 104° (ESE) 09:01:28 145.826/435.025
SEEDS 07 Dec 08:53:36 08:56:38 20° 292° (WNW) 08:59:39 437.485
COMPASS 1 07 Dec 09:01:16 09:04:35 23° 291° (WNW) 09:07:54 437.405
DANDE 07 Dec 09:07:17 09:11:05 26° 97° (E) 09:14:10 436.750
AO-85 07 Dec 09:07:55 09:10:31 17° 44° (NE) 09:13:04 145.980
AIST 2 07 Dec 09:14:58 09:16:19 11° 320° (NW) 09:17:40 435.215
UWE-3 07 Dec 09:15:31 09:19:16 30° 290° (WNW) 09:22:55 435.000/436.395/437.385
DELFI C3 07 Dec 09:16:15 09:20:08 51° 100° (E) 09:24:01 145.870
HUMSAT D 07 Dec 09:33:26 09:37:17 40° 98° (E) 09:41:06 437.325/437.525
UNISAT 6 07 Dec 09:35:37 09:40:11 51° 260° (W) 09:44:44 437.425
JAS-2 07 Dec 09:38:45 09:44:36 39° 70° (ENE) 09:49:52 435.910
Cosmos 2499 07 Dec 09:38:58 09:44:24 18° 62° (ENE) 09:49:36 435.465 / 435.565
CUSAT 1 07 Dec 09:52:38 09:54:14 13° 284° (WNW) 09:55:44 437.405
ZACube-1 07 Dec 09:54:11 09:57:09 19° 293° (WNW) 10:00:05 437.345
NANOSAT C BR1 07 Dec 09:56:20 09:59:54 26° 69° (ENE) 10:03:28 145.865
FUNcube-1 07 Dec 10:01:15 10:04:01 17° 294° (WNW) 10:06:45 145.935
QB50P2 07 Dec 10:03:08 10:07:02 36° 71° (ENE) 10:10:59 145.880/145.840
POLYITAN 1 07 Dec 10:03:40 10:07:33 34° 71° (ENE) 10:11:26 437.675
TIGRISAT 07 Dec 10:05:56 10:09:54 27° 264° (W) 10:13:52 435.000
ANTELSAT 07 Dec 10:07:57 10:11:47 25° 265° (W) 10:15:35 437.575/2403.000
PCSat 07 Dec 10:10:55 10:15:48 36° 110° (ESE) 10:20:43 145.827
QB50P1 07 Dec 10:15:59 10:20:05 46° 73° (ENE) 10:24:12 145.935-145.965
DUCHIFAT 1 07 Dec 10:17:18 10:21:18 41° 72° (ENE) 10:25:18 145.980
POPSAT HIP 1 07 Dec 10:37:26 10:41:43 82° 75° (ENE) 10:46:01 437.405
AO-85 07 Dec 10:47:24 10:51:11 45° 243° (WSW) 10:54:52 145.980
DANDE 07 Dec 10:50:38 10:53:39 18° 282° (WNW) 10:56:13 436.750
DELFI C3 07 Dec 10:52:50 10:54:30 12° 295° (WNW) 10:56:09 145.870
RS-15 07 Dec 10:53:54 11:02:51 22° 347° (NNW) 11:11:55 29.354- 29.394
GONETS M04 07 Dec 10:56:14 11:04:42 52° 77° (ENE) 11:13:08
BUGSAT 1 07 Dec 11:08:16 11:12:24 59° 75° (ENE) 11:16:37 437.445
ESTCUBE 1 07 Dec 11:08:50 11:13:21 65° 102° (ESE) 11:17:49 437.505/2401.250
AISAT 07 Dec 11:09:52 11:13:41 27° 96° (E) 11:17:30 437.250
HUMSAT D 07 Dec 11:10:07 11:12:33 16° 294° (WNW) 11:15:00 437.325/437.525
